{"data":{"norad_id":50481,"intl_designator":"2021-132N","name":"ONEWEB-0401","alt_names":[],"object_type":"PAYLOAD","status":"ACTIVE","operator":null,"country":"UK","launch_date":"2021-12-27","launch_site_code":"TYMSC","launch_vehicle":null,"mission":null,"orbit_class":"UNKNOWN","rcs_meters":null,"size_class":null,"mass_kg":null,"dimensions":null,"purposes":["comms"],"wikipedia_slug":null,"has_3d_model":false,"image_url":null,"decayed_at":null,"tle_current":{"epoch":"2026-09-20T03:03:39.475008Z","epoch_age_seconds":58023,"freshness":"FRESH","line1":"1 50481U 21132N   26263.12754022  .00000064  00000+0  13015-3 0  9991","line2":"2 50481  87.9168 316.5829 0002079  92.0068 268.1302 13.18685213234128","mean_motion":13.18685213,"eccentricity":0.0002079,"inclination_deg":87.9168,"raan_deg":316.5829,"arg_perigee_deg":92.0068,"mean_anomaly_deg":268.1302,"bstar":0.00013015,"rev_number":23412,"period_min":109.19967751242,"perigee_km":1188.1727750027,"apogee_km":1191.3195008114,"semimajor_km":7567.8831379071,"source":"CELESTRAK","updated_at":"2026-09-20T09:00:44.701803Z"}}}